Location: Newark
(45.6000°N, 12.8833°E)
Time: 21:39:37
(UTC+00:00)

SR - Visible Passes

Search period start: 16 November 2019 00:00
Search period end: 26 November 2019 00:00
Orbit: 574 x 882 km, 66.7° (Epoch: 16 November)

Date Brightness Start Highest point End Pass type
(mag) Time Alt. Az. Time Alt. Az. Time Alt. Az.
16 Nov ? 16:20:06 10° W 16:24:28 24° NW 16:29:04 10° NNE visible
17 Nov ? 17:15:55 10° NW 17:18:16 12° NNW 17:20:39 10° N visible
18 Nov ? 16:24:12 10° WNW 16:27:47 17° NNW 16:31:31 10° N visible
20 Nov ? 16:28:45 10° NW 16:31:15 13° NNW 16:33:48 10° N visible
22 Nov ? 16:34:07 10° NNW 16:34:50 10° NNW 16:35:34 10° N visible
24 Nov ? 18:21:18 10° N 18:21:47 11° N 18:21:47 11° N visible
25 Nov ? 19:12:50 10° NNW 19:12:51 10° NNW 19:12:51 10° NNW visible
